Regional Weather Roundup
Issued by NWS

Home | Current Version | Previous Version | Graphics & Text | Print | Product List | Glossary On
Versions: 1 2 3 4 5 6 7 8 9 10 11 12 13 14 15 16 17 18 19 20 21 22 23 24 25 26 27 28 29 30 31 32 33 34 35 36 37 38 39 40 41 42 43 44 45 46 47 48 49 50
000
ASUS43 KLMK 092002
RWRKY
KENTUCKY REGIONAL WEATHER ROUNDUP
NATIONAL WEATHER SERVICE LOUISVILLE KY
300 PM EST FRI DEC 09 2016

NOTE "FAIR" INDICATES FEW OR NO CLOUDS BELOW 12,000 FEET
WITH NO SIGNIFICANT WEATHER AND/OR OBSTRUCTIONS TO VISIBILITY.

KYZ001>023-026-027-061>063-070>075-092100-
WESTERN AND SOUTH CENTRAL KENTUCKY

CITY           SKY/WX    TMP DP  RH WIND       PRES   REMARKS
PADUCAH        SUNNY     33  13  43 NW7       30.59F WCI  27
HENDERSON      CLOUDY    32  12  43 W6        30.58S WCI  26
OWENSBORO      PTSUNNY   28  16  60 W6        30.59F WCI  22
HOPKINSVILLE   SUNNY     33  15  48 NW7       30.56F WCI  26
BOWLING GREEN  MOSUNNY   34  15  46 CALM      30.56F
GLASGOW        NOT AVBL
$$

KYZ024-025-028>034-038-045-046-053-092100-
NORTH CENTRAL KENTUCKY

CITY           SKY/WX    TMP DP  RH WIND       PRES   REMARKS
LOUISVILLE/SDF PTSUNNY   28  12  51 N6        30.56S WCI  22
LOUISVILLE/LOU CLOUDY    27  13  55 NW3       30.57S
FORT KNOX      CLOUDY    26  14  60 W7        30.53F WCI  18
$$

KYZ035>037-039>044-047>052-055>060-089>105-092100-
NORTHEAST KENTUCKY

CITY           SKY/WX    TMP DP  RH WIND       PRES   REMARKS
LEXINGTON      CLOUDY    25  13  60 W6        30.52S WCI  18
COVINGTON      FLURRIES  24  13  62 W7        30.51S WCI  16
FRANKFORT      CLOUDY    25  11  55 W6        30.53S WCI  18
$$

KYZ054-064>069-076>088-106>120-092100-
SOUTHEAST KENTUCKY

CITY           SKY/WX    TMP DP  RH WIND       PRES   REMARKS
JACKSON        PTSUNNY   25  12  58 VRB5      30.49S WCI  19
LONDON         PTSUNNY   29  13  51 N5        30.49F WCI  24
SOMERSET       PTSUNNY   27  14  59 W3        30.54F
MIDDLESBORO    SUNNY     31  15  50 NW5       30.49S WCI  26
MONTICELLO     PTCLDY    29  17  61 VRB7      30.54F WCI  22
$$





USA.gov is the U.S. government's official web portal to all federal, state and local government web resources and services.